This is the latest recevied weather packets stored in our database for station/object WE8L. If no packets are shown the sender has not sent any weather packets the latest 10 day(s).
| Time | Temp. | Humidity | Pressure | Rain* | Wind** | Luminosity | Snow |
|---|---|---|---|---|---|---|---|
| 1777750250 | 12.22° C | 40% | 1019.4 hPa | 0 mm | - | 279 W/m² | - |
| 1777749946 | 12.78° C | 41% | 1019.6 hPa | 0 mm | - | 378 W/m² | - |
| 1777749644 | 12.78° C | 42% | 1019.6 hPa | 0 mm | - | 470 W/m² | - |
| 1777749340 | 11.67° C | 39% | 1019.6 hPa | 0 mm | - | 649 W/m² | - |
| 1777749038 | 11.67° C | 43% | 1019.6 hPa | 0 mm | - | 467 W/m² | - |
| 1777748736 | 11.67° C | 40% | 1019.6 hPa | 0 mm | - | 81 W/m² | - |
| 1777748432 | 12.22° C | 40% | 1019.8 hPa | 0 mm | - | 742 W/m² | - |
| 1777748127 | 11.67° C | 40% | 1019.9 hPa | 0 mm | - | 601 W/m² | - |
| 1777747824 | 11.67° C | 41% | 1019.9 hPa | 0 mm | - | 180 W/m² | - |
| 1777747520 | 12.22° C | 41% | 1019.8 hPa | 0 mm | - | 98 W/m² | - |
| 1777747216 | 11.67° C | 42% | 1019.6 hPa | 0 mm | - | 812 W/m² | - |
| 1777746913 | 11.67° C | 38% | 1019.8 hPa | 0 mm | - | 88 W/m² | - |
| 1777746609 | 12.22° C | 40% | 1019.9 hPa | 0 mm | - | 327 W/m² | - |
| 1777746304 | 12.22° C | 41% | 1019.9 hPa | 0 mm | - | 684 W/m² | - |
| 1777746000 | 12.22° C | 38% | 1020 hPa | 0 mm | - | 826 W/m² | - |
| 1777745698 | 11.67° C | 41% | 1019.9 hPa | 0 mm | - | 149 W/m² | - |
| 1777745397 | 12.22° C | 39% | 1020 hPa | 0 mm | - | 108 W/m² | - |
| 1777745093 | 12.22° C | 46% | 1020 hPa | 0 mm | - | 773 W/m² | - |
| 1777744789 | 12.22° C | 40% | 1020.1 hPa | 0 mm | - | 311 W/m² | - |
| 1777744484 | 11.67° C | 41% | 1020 hPa | 0 mm | - | 237 W/m² | - |
| 1777744181 | 11.67° C | 41% | 1019.9 hPa | 0 mm | - | 95 W/m² | - |
| 1777743878 | 12.22° C | 40% | 1020 hPa | 0 mm | - | 481 W/m² | - |
| 1777743574 | 11.11° C | 42% | 1020.1 hPa | 0 mm | - | 670 W/m² | - |
| 1777743271 | 11.67° C | 41% | 1020 hPa | 0 mm | - | 501 W/m² | - |
| 1777742970 | 11.67° C | 43% | 1020.2 hPa | 0 mm | - | 146 W/m² | - |
* Rain latest hour (hover to see other rain measurements)
** Current wind speed in m/s (hover to see current wind gust speed)